^^
Saratoga-Weather Station Historical Data
Daily Summary for September 14, 2020 Units:  Metric    English   Both
Daily Weekly Monthly Yearly Custom
  High: Low: Average:
Temperature: 32.2 °C 12 °C 20.9 °C
Dew Point: 16 °C 7.2 °C 11.8 °C
Humidity: 79% 34% 59%
Wind Speed: 7.9km/h 0km/h 0.8km/h
Wind Gust: 12.9km/h - -
Wind- - ESE
Pressure: 1024.0 hPa 1019.6 hPa -
Precipitation: 0.0 mm    
Historical Graphs
 
 
Tabular Data for September 14, 2020
Time Temperature Dew Point Pressure Wind Wind Speed Wind Gust Humidity Rainfall Rate (Hourly) solar
00:03 15.1 °C 7.4 °C 1024.0 hPa Calm     60% 0.0 mm 0 W/m2
00:08 14.9 °C 7.2 °C 1024.0 hPa Calm     60% 0.0 mm 0 W/m2
00:14 15 °C 7.3 °C 1024.0 hPa Calm     60% 0.0 mm 0 W/m2
00:19 14.9 °C 7.2 °C 1024.0 hPa Calm     60% 0.0 mm 0 W/m2
00:24 14.9 °C 7.4 °C 1024.0 hPa Calm     61% 0.0 mm 0 W/m2
00:29 14.9 °C 7.4 °C 1024.0 hPa Calm     61% 0.0 mm 0 W/m2
00:34 14.9 °C 7.4 °C 1024.0 hPa Calm     61% 0.0 mm 0 W/m2
00:39 14.8 °C 7.8 °C 1024.0 hPa Calm     63% 0.0 mm 0 W/m2
00:44 14.8 °C 7.8 °C 1024.0 hPa Calm     63% 0.0 mm 0 W/m2
00:49 14.7 °C 7.5 °C 1024.0 hPa Calm     62% 0.0 mm 0 W/m2
00:54 14.7 °C 7.7 °C 1024.0 hPa Calm     63% 0.0 mm 0 W/m2
00:59 14.6 °C 7.6 °C 1024.0 hPa Calm     63% 0.0 mm 0 W/m2
01:04 14.4 °C 7.4 °C 1024.0 hPa Calm     63% 0.0 mm 0 W/m2
01:09 14.3 °C 7.6 °C 1024.0 hPa Calm     64% 0.0 mm 0 W/m2
01:14 14.3 °C 7.8 °C 1024.0 hPa Calm     65% 0.0 mm 0 W/m2
01:19 14.2 °C 7.7 °C 1024.0 hPa Calm     65% 0.0 mm 0 W/m2
01:24 14.1 °C 7.6 °C 1024.0 hPa Calm     65% 0.0 mm 0 W/m2
01:29 14 °C 7.5 °C 1024.0 hPa Calm     65% 0.0 mm 0 W/m2
01:34 14 °C 7.7 °C 1024.0 hPa Calm     66% 0.0 mm 0 W/m2
01:39 13.9 °C 7.9 °C 1024.0 hPa Calm     67% 0.0 mm 0 W/m2
01:44 13.9 °C 7.9 °C 1024.0 hPa Calm     67% 0.0 mm 0 W/m2
01:49 13.8 °C 7.8 °C 1024.0 hPa Calm     67% 0.0 mm 0 W/m2
01:54 13.8 °C 7.8 °C 1024.0 hPa Calm     67% 0.0 mm 0 W/m2
01:59 13.8 °C 7.8 °C 1024.0 hPa Calm     67% 0.0 mm 0 W/m2
02:04 13.7 °C 7.9 °C 1024.0 hPa Calm     68% 0.0 mm 0 W/m2
02:09 13.7 °C 7.9 °C 1024.0 hPa Calm     68% 0.0 mm 0 W/m2
02:14 13.7 °C 7.9 °C 1024.0 hPa Calm     68% 0.0 mm 0 W/m2
02:19 13.6 °C 7.8 °C 1024.0 hPa Calm     68% 0.0 mm 0 W/m2
02:24 13.6 °C 8 °C 1024.0 hPa Calm     69% 0.0 mm 0 W/m2
02:29 13.6 °C 8 °C 1024.0 hPa Calm     69% 0.0 mm 0 W/m2
02:34 13.5 °C 7.7 °C 1024.0 hPa Calm     68% 0.0 mm 0 W/m2
02:39 13.4 °C 7.8 °C 1023.7 hPa Calm     69% 0.0 mm 0 W/m2
02:44 13.3 °C 7.9 °C 1023.7 hPa Calm     70% 0.0 mm 0 W/m2
02:49 13.3 °C 7.9 °C 1023.7 hPa Calm     70% 0.0 mm 0 W/m2
02:54 13.2 °C 8.1 °C 1023.7 hPa Calm     71% 0.0 mm 0 W/m2
02:59 13.2 °C 8.1 °C 1023.7 hPa Calm     71% 0.0 mm 0 W/m2
03:04 13.2 °C 8.3 °C 1023.7 hPa Calm     72% 0.0 mm 0 W/m2
03:09 13.1 °C 8 °C 1023.7 hPa Calm     71% 0.0 mm 0 W/m2
03:14 13.1 °C 8.2 °C 1023.7 hPa Calm     72% 0.0 mm 0 W/m2
03:19 13.1 °C 8.4 °C 1023.7 hPa Calm     73% 0.0 mm 0 W/m2
03:24 13.1 °C 8.4 °C 1023.7 hPa Calm     73% 0.0 mm 0 W/m2
03:29 13.3 °C 8.4 °C 1023.7 hPa Calm     72% 0.0 mm 0 W/m2
03:34 13.3 °C 8.6 °C 1023.7 hPa Calm     73% 0.0 mm 0 W/m2
03:39 13.3 °C 8.6 °C 1023.7 hPa Calm     73% 0.0 mm 0 W/m2
03:44 13.3 °C 8.6 °C 1023.7 hPa Calm     73% 0.0 mm 0 W/m2
03:49 13.3 °C 8.4 °C 1023.7 hPa Calm     72% 0.0 mm 0 W/m2
03:54 13.3 °C 8.4 °C 1023.7 hPa Calm     72% 0.0 mm 0 W/m2
03:59 13.3 °C 8.4 °C 1023.7 hPa Calm     72% 0.0 mm 0 W/m2
04:04 13.2 °C 8.3 °C 1023.7 hPa Calm     72% 0.0 mm 0 W/m2
04:09 13.2 °C 8.3 °C 1023.7 hPa Calm     72% 0.0 mm 0 W/m2
04:14 13.1 °C 8.2 °C 1023.4 hPa Calm     72% 0.0 mm 0 W/m2
04:19 13 °C 8.1 °C 1023.7 hPa Calm     72% 0.0 mm 0 W/m2
04:24 12.9 °C 8 °C 1023.4 hPa Calm     72% 0.0 mm 0 W/m2
04:29 12.9 °C 8.2 °C 1023.7 hPa Calm     73% 0.0 mm 0 W/m2
04:34 12.9 °C 8.2 °C 1023.4 hPa Calm     73% 0.0 mm 0 W/m2
04:39 12.9 °C 8.2 °C 1023.4 hPa Calm     73% 0.0 mm 0 W/m2
04:44 12.9 °C 8.2 °C 1023.4 hPa Calm     73% 0.0 mm 0 W/m2
04:50 13 °C 8.5 °C 1023.4 hPa Calm     74% 0.0 mm 0 W/m2
04:55 13 °C 8.3 °C 1023.4 hPa Calm     73% 0.0 mm 0 W/m2
05:00 13 °C 8.3 °C 1023.4 hPa Calm     73% 0.0 mm 0 W/m2
05:05 12.9 °C 8.2 °C 1023.4 hPa Calm     73% 0.0 mm 0 W/m2
05:10 12.8 °C 8.3 °C 1023.4 hPa Calm     74% 0.0 mm 0 W/m2
05:15 12.8 °C 8.3 °C 1023.4 hPa Calm     74% 0.0 mm 0 W/m2
05:20 12.8 °C 8.3 °C 1023.4 hPa Calm     74% 0.0 mm 0 W/m2
05:25 12.8 °C 8.5 °C 1023.4 hPa Calm     75% 0.0 mm 0 W/m2
05:30 12.8 °C 8.5 °C 1023.7 hPa Calm     75% 0.0 mm 0 W/m2
05:35 12.7 °C 8.4 °C 1023.7 hPa Calm     75% 0.0 mm 0 W/m2
05:40 12.6 °C 8.3 °C 1023.7 hPa Calm     75% 0.0 mm 0 W/m2
05:45 12.5 °C 8.4 °C 1023.4 hPa Calm     76% 0.0 mm 0 W/m2
05:50 12.4 °C 8.3 °C 1023.7 hPa Calm     76% 0.0 mm 0 W/m2
05:55 12.4 °C 8.3 °C 1023.7 hPa Calm     76% 0.0 mm 0 W/m2
06:00 12.3 °C 8.2 °C 1023.4 hPa Calm     76% 0.0 mm 0 W/m2
06:05 12.4 °C 8.3 °C 1023.4 hPa Calm     76% 0.0 mm 0 W/m2
06:11 12.4 °C 8.3 °C 1023.4 hPa Calm     76% 0.0 mm 0 W/m2
06:16 12.4 °C 8.3 °C 1023.4 hPa Calm     76% 0.0 mm 0 W/m2
06:21 12.3 °C 8.2 °C 1023.4 hPa Calm     76% 0.0 mm 0 W/m2
06:26 12.3 °C 8.2 °C 1023.4 hPa Calm     76% 0.0 mm 0 W/m2
06:31 12.3 °C 8.2 °C 1023.4 hPa Calm     76% 0.0 mm 0 W/m2
06:36 12.3 °C 8.4 °C 1023.4 hPa Calm     77% 0.0 mm 0 W/m2
06:41 12.2 °C 8.3 °C 1023.4 hPa Calm     77% 0.0 mm 0 W/m2
06:46 12.1 °C 8.2 °C 1023.4 hPa Calm     77% 0.0 mm 0 W/m2
06:51 12.1 °C 8.4 °C 1023.4 hPa Calm     78% 0.0 mm 0 W/m2
06:56 12.2 °C 8.5 °C 1023.4 hPa Calm     78% 0.0 mm 0 W/m2
07:01 12.2 °C 8.7 °C 1023.4 hPa Calm     79% 0.0 mm 0 W/m2
07:06 12.2 °C 8.7 °C 1023.4 hPa Calm     79% 0.0 mm 0 W/m2
07:11 12.1 °C 8.4 °C 1023.4 hPa Calm     78% 0.0 mm 0 W/m2
07:16 12.1 °C 8.6 °C 1023.4 hPa Calm     79% 0.0 mm 5 W/m2
07:21 12 °C 8.5 °C 1023.4 hPa Calm     79% 0.0 mm 7 W/m2
07:26 12 °C 8.5 °C 1023.4 hPa Calm     79% 0.0 mm 9 W/m2
07:31 12 °C 8.5 °C 1023.7 hPa Calm     79% 0.0 mm 14 W/m2
07:36 12 °C 8.5 °C 1023.7 hPa Calm     79% 0.0 mm 16 W/m2
07:41 12.1 °C 8.6 °C 1023.7 hPa Calm     79% 0.0 mm 19 W/m2
07:46 12.1 °C 8.6 °C 1023.7 hPa Calm     79% 0.0 mm 23 W/m2
07:51 12.2 °C 8.7 °C 1023.7 hPa Calm     79% 0.0 mm 25 W/m2
07:56 12.2 °C 8.7 °C 1023.7 hPa Calm     79% 0.0 mm 28 W/m2
08:01 12.2 °C 8.7 °C 1023.7 hPa Calm     79% 0.0 mm 33 W/m2
08:06 12.3 °C 8.8 °C 1023.7 hPa Calm     79% 0.0 mm 37 W/m2
08:11 12.3 °C 8.8 °C 1023.7 hPa Calm     79% 0.0 mm 40 W/m2
08:16 12.4 °C 8.9 °C 1023.7 hPa Calm     79% 0.0 mm 42 W/m2
08:21 12.6 °C 9.1 °C 1023.7 hPa Calm     79% 0.0 mm 51 W/m2
08:26 12.8 °C 9.1 °C 1023.7 hPa Calm     78% 0.0 mm 88 W/m2
08:31 13.1 °C 9.4 °C 1023.7 hPa Calm     78% 0.0 mm 109 W/m2
08:37 13.3 °C 9.4 °C 1023.7 hPa Calm     77% 0.0 mm 120 W/m2
08:42 13.6 °C 9.6 °C 1023.7 hPa Calm     77% 0.0 mm 134 W/m2
08:47 13.8 °C 9.6 °C 1023.7 hPa Calm     76% 0.0 mm 135 W/m2
08:52 14.1 °C 9.7 °C 1023.7 hPa Calm     75% 0.0 mm 53 W/m2
08:57 14.3 °C 9.9 °C 1023.7 hPa Calm     75% 0.0 mm 100 W/m2
09:02 14.7 °C 10.3 °C 1023.7 hPa Calm     75% 0.0 mm 188 W/m2
09:07 15 °C 10.6 °C 1023.7 hPa Calm     75% 0.0 mm 199 W/m2
09:12 15.4 °C 10.8 °C 1023.7 hPa Calm     74% 0.0 mm 213 W/m2
09:17 15.8 °C 11 °C 1023.7 hPa Calm     73% 0.0 mm 158 W/m2
09:22 16.2 °C 11.1 °C 1023.7 hPa Calm     72% 0.0 mm 69 W/m2
09:27 16.6 °C 11.3 °C 1024.0 hPa Calm     71% 0.0 mm 54 W/m2
09:32 17.1 °C 11.6 °C 1023.7 hPa Calm     70% 0.0 mm 56 W/m2
09:37 17.5 °C 11.3 °C 1023.7 hPa Calm     67% 0.0 mm 58 W/m2
09:42 18 °C 11.6 °C 1024.0 hPa Calm     66% 0.0 mm 58 W/m2
09:47 18.3 °C 11.6 °C 1024.0 hPa Calm     65% 0.0 mm 60 W/m2
09:52 18.7 °C 11.8 °C 1024.0 hPa Calm   1.6 km/h 64% 0.0 mm 60 W/m2
09:57 19.1 °C 11.9 °C 1024.0 hPa Calm   1.6 km/h 63% 0.0 mm 62 W/m2
10:02 19.4 °C 11.9 °C 1024.0 hPa Calm     62% 0.0 mm 62 W/m2
10:07 19.8 °C 12.3 °C 1024.0 hPa ESE 3.2 km/h 4.8 km/h 62% 0.0 mm 63 W/m2
10:12 20.3 °C 12.3 °C 1024.0 hPa ENE 1.4 km/h 1.6 km/h 60% 0.0 mm 63 W/m2
10:17 20.7 °C 12.4 °C 1024.0 hPa ENE 1.4 km/h 4.8 km/h 59% 0.0 mm 65 W/m2
10:22 20.8 °C 12.5 °C 1024.0 hPa Calm   3.2 km/h 59% 0.0 mm 65 W/m2
10:27 21 °C 12.7 °C 1024.0 hPa Calm   4.8 km/h 59% 0.0 mm 67 W/m2
10:32 21.2 °C 12.9 °C 1024.0 hPa East 4.7 km/h 6.4 km/h 59% 0.0 mm 67 W/m2
10:37 21.3 °C 12.4 °C 1024.0 hPa Calm   3.2 km/h 57% 0.0 mm 67 W/m2
10:42 21.4 °C 12.8 °C 1024.0 hPa East 1.4 km/h 6.4 km/h 58% 0.0 mm 69 W/m2
10:47 21.5 °C 12.6 °C 1024.0 hPa NE 4.7 km/h 6.4 km/h 57% 0.0 mm 69 W/m2
10:52 21.6 °C 12.7 °C 1024.0 hPa Calm   1.6 km/h 57% 0.0 mm 70 W/m2
10:57 21.6 °C 13 °C 1023.7 hPa Calm   6.4 km/h 58% 0.0 mm 72 W/m2
11:02 21.8 °C 13.4 °C 1024.0 hPa Calm     59% 0.0 mm 74 W/m2
11:07 22 °C 13.6 °C 1023.7 hPa NNE 1.4 km/h 1.6 km/h 59% 0.0 mm 76 W/m2
11:12 22.3 °C 13.4 °C 1023.7 hPa NE 4.7 km/h 4.8 km/h 57% 0.0 mm 77 W/m2
11:17 22.6 °C 13.9 °C 1023.7 hPa Calm   1.6 km/h 58% 0.0 mm 79 W/m2
11:22 22.7 °C 13.5 °C 1023.7 hPa ENE 4.7 km/h 4.8 km/h 56% 0.0 mm 81 W/m2
11:27 22.8 °C 13.6 °C 1023.7 hPa NNW 3.2 km/h 3.2 km/h 56% 0.0 mm 83 W/m2
11:32 22.8 °C 13.6 °C 1023.7 hPa Calm   1.6 km/h 56% 0.0 mm 84 W/m2
11:37 23.1 °C 13.8 °C 1023.7 hPa East 1.4 km/h 1.6 km/h 56% 0.0 mm 88 W/m2
11:42 23.4 °C 13.8 °C 1023.7 hPa Calm   3.2 km/h 55% 0.0 mm 311 W/m2
11:47 23.7 °C 14.1 °C 1023.4 hPa Calm   4.8 km/h 55% 0.0 mm 557 W/m2
11:52 23.9 °C 14.3 °C 1023.4 hPa North 1.4 km/h 4.8 km/h 55% 0.0 mm 527 W/m2
11:57 24.2 °C 14.3 °C 1023.4 hPa Calm   3.2 km/h 54% 0.0 mm 564 W/m2
12:02 24.3 °C 14.4 °C 1023.4 hPa East 1.4 km/h 4.8 km/h 54% 0.0 mm 578 W/m2
12:07 24.5 °C 14.3 °C 1023.4 hPa Calm     53% 0.0 mm 592 W/m2
12:12 25 °C 14.5 °C 1023.4 hPa East 3.2 km/h 9.7 km/h 52% 0.0 mm 598 W/m2
12:18 25.4 °C 14.5 °C 1023.4 hPa SE 1.4 km/h 3.2 km/h 51% 0.0 mm 606 W/m2
12:23 25.6 °C 14.7 °C 1023.4 hPa Calm   3.2 km/h 51% 0.0 mm 612 W/m2
12:28 25.7 °C 14.8 °C 1023.4 hPa East 3.2 km/h 4.8 km/h 51% 0.0 mm 621 W/m2
12:33 26.1 °C 15.2 °C 1023.4 hPa Calm   3.2 km/h 51% 0.0 mm 626 W/m2
12:38 26.6 °C 15 °C 1023.0 hPa Calm   1.6 km/h 49% 0.0 mm 635 W/m2
12:43 26.9 °C 15.6 °C 1023.0 hPa ESE 3.2 km/h 3.2 km/h 50% 0.0 mm 643 W/m2
12:48 27.3 °C 15.3 °C 1023.0 hPa ENE 6.4 km/h 6.4 km/h 48% 0.0 mm 645 W/m2
12:53 27.5 °C 15.5 °C 1023.0 hPa ENE 4.7 km/h 4.8 km/h 48% 0.0 mm 652 W/m2
12:58 27.7 °C 15.7 °C 1023.0 hPa SSE 1.4 km/h 6.4 km/h 48% 0.0 mm 656 W/m2
13:03 27.7 °C 15.7 °C 1023.0 hPa East 4.7 km/h 9.7 km/h 48% 0.0 mm 659 W/m2
13:08 27.9 °C 15.5 °C 1023.0 hPa ESE 1.4 km/h 3.2 km/h 47% 0.0 mm 657 W/m2
13:13 28.1 °C 15.7 °C 1023.0 hPa Calm   9.7 km/h 47% 0.0 mm 661 W/m2
13:18 28.2 °C 15.8 °C 1023.0 hPa ESE 1.4 km/h 4.8 km/h 47% 0.0 mm 663 W/m2
13:23 28.3 °C 15.6 °C 1023.0 hPa Calm   9.7 km/h 46% 0.0 mm 670 W/m2
13:28 28.4 °C 15.7 °C 1022.7 hPa NNE 6.4 km/h 9.7 km/h 46% 0.0 mm 670 W/m2
13:33 28.5 °C 15.8 °C 1022.7 hPa SSE 1.4 km/h 4.8 km/h 46% 0.0 mm 670 W/m2
13:38 28.7 °C 15.6 °C 1022.7 hPa NE 3.2 km/h 9.7 km/h 45% 0.0 mm 668 W/m2
13:43 28.8 °C 15.3 °C 1022.7 hPa NE 6.4 km/h 8 km/h 44% 0.0 mm 673 W/m2
13:48 29 °C 15.9 °C 1022.4 hPa NE 1.4 km/h 3.2 km/h 45% 0.0 mm 668 W/m2
13:53 29.2 °C 16 °C 1022.4 hPa NNE 6.4 km/h 6.4 km/h 45% 0.0 mm 670 W/m2
13:58 29.1 °C 15.6 °C 1022.4 hPa East 1.4 km/h 6.4 km/h 44% 0.0 mm 663 W/m2
14:03 29.3 °C 15.4 °C 1022.4 hPa Calm   1.6 km/h 43% 0.0 mm 661 W/m2
14:08 29.5 °C 15.2 °C 1022.4 hPa East 7.9 km/h 8 km/h 42% 0.0 mm 659 W/m2
14:13 29.7 °C 15.4 °C 1022.4 hPa ESE 3.2 km/h 9.7 km/h 42% 0.0 mm 661 W/m2
14:19 29.7 °C 15.4 °C 1022.0 hPa East 3.2 km/h 4.8 km/h 42% 0.0 mm 663 W/m2
14:24 29.9 °C 15.2 °C 1022.0 hPa ESE 4.7 km/h 8 km/h 41% 0.0 mm 661 W/m2
14:29 30.2 °C 14.7 °C 1022.0 hPa SSW 4.7 km/h 6.4 km/h 39% 0.0 mm 661 W/m2
14:34 30.2 °C 14.7 °C 1022.0 hPa NE 6.4 km/h 6.4 km/h 39% 0.0 mm 663 W/m2
14:39 30.3 °C 14.8 °C 1022.0 hPa East 6.4 km/h 6.4 km/h 39% 0.0 mm 659 W/m2
14:44 30.4 °C 14.5 °C 1022.0 hPa NNE 1.4 km/h 3.2 km/h 38% 0.0 mm 656 W/m2
14:49 30.7 °C 14.8 °C 1022.0 hPa NE 4.7 km/h 8 km/h 38% 0.0 mm 652 W/m2
14:54 30.8 °C 14.8 °C 1022.0 hPa SSW 3.2 km/h 4.8 km/h 38% 0.0 mm 631 W/m2
14:59 30.9 °C 14.1 °C 1021.7 hPa ENE 4.7 km/h 12.9 km/h 36% 0.0 mm 598 W/m2
15:04 30.9 °C 14.5 °C 1021.7 hPa Calm   6.4 km/h 37% 0.0 mm 594 W/m2
15:09 30.9 °C 14.1 °C 1021.7 hPa East 1.4 km/h 12.9 km/h 36% 0.0 mm 573 W/m2
15:14 30.9 °C 13.7 °C 1021.7 hPa South 1.4 km/h 4.8 km/h 35% 0.0 mm 585 W/m2
15:19 31 °C 13.7 °C 1021.7 hPa Calm   9.7 km/h 35% 0.0 mm 575 W/m2
15:24 31.2 °C 13.9 °C 1021.3 hPa Calm   3.2 km/h 35% 0.0 mm 575 W/m2
15:29 31.3 °C 14.9 °C 1021.3 hPa East 1.4 km/h 6.4 km/h 37% 0.0 mm 563 W/m2
15:34 31.4 °C 14.1 °C 1021.3 hPa SE 1.4 km/h 6.4 km/h 35% 0.0 mm 533 W/m2
15:39 31.4 °C 14.5 °C 1021.3 hPa ENE 1.4 km/h 4.8 km/h 36% 0.0 mm 513 W/m2
15:44 31.5 °C 14.6 °C 1021.3 hPa Calm   1.6 km/h 36% 0.0 mm 510 W/m2
15:49 31.6 °C 15.1 °C 1021.3 hPa NE 4.7 km/h 4.8 km/h 37% 0.0 mm 515 W/m2
15:54 31.6 °C 14.7 °C 1021.3 hPa NE 3.2 km/h 4.8 km/h 36% 0.0 mm 540 W/m2
15:59 31.6 °C 14.7 °C 1021.3 hPa East 4.7 km/h 4.8 km/h 36% 0.0 mm 533 W/m2
16:04 31.7 °C 15.2 °C 1021.3 hPa NE 3.2 km/h 3.2 km/h 37% 0.0 mm 503 W/m2
16:09 31.8 °C 14.9 °C 1021.0 hPa ESE 1.4 km/h 1.6 km/h 36% 0.0 mm 480 W/m2
16:14 31.7 °C 14.8 °C 1021.0 hPa East 1.4 km/h 3.2 km/h 36% 0.0 mm 466 W/m2
16:19 31.8 °C 14.9 °C 1021.0 hPa Calm   6.4 km/h 36% 0.0 mm 499 W/m2
16:24 31.7 °C 14.8 °C 1021.0 hPa NE 1.4 km/h 4.8 km/h 36% 0.0 mm 492 W/m2
16:29 31.8 °C 14.9 °C 1020.7 hPa South 1.4 km/h 6.4 km/h 36% 0.0 mm 489 W/m2
16:34 32 °C 15.1 °C 1020.7 hPa ESE 3.2 km/h 4.8 km/h 36% 0.0 mm 482 W/m2
16:39 32.1 °C 15.6 °C 1020.7 hPa ESE 3.2 km/h 3.2 km/h 37% 0.0 mm 464 W/m2
16:44 32.1 °C 14.7 °C 1020.7 hPa East 3.2 km/h 4.8 km/h 35% 0.0 mm 464 W/m2
16:49 31.9 °C 14.5 °C 1020.7 hPa East 1.4 km/h 4.8 km/h 35% 0.0 mm 457 W/m2
16:54 31.9 °C 14.5 °C 1020.7 hPa Calm   3.2 km/h 35% 0.0 mm 448 W/m2
16:59 32 °C 14.6 °C 1020.7 hPa ENE 1.4 km/h 4.8 km/h 35% 0.0 mm 436 W/m2
17:04 32.1 °C 15.1 °C 1020.7 hPa East 4.7 km/h 4.8 km/h 36% 0.0 mm 401 W/m2
17:09 32.1 °C 15.1 °C 1020.7 hPa Calm   1.6 km/h 36% 0.0 mm 401 W/m2
17:14 32.1 °C 14.3 °C 1020.3 hPa ENE 3.2 km/h 8 km/h 34% 0.0 mm 394 W/m2
17:19 32.2 °C 14.8 °C 1020.3 hPa ENE 1.4 km/h 6.4 km/h 35% 0.0 mm 371 W/m2
17:24 32.2 °C 14.8 °C 1020.3 hPa Calm   8 km/h 35% 0.0 mm 357 W/m2
17:29 32 °C 14.6 °C 1020.3 hPa SE 4.7 km/h 4.8 km/h 35% 0.0 mm 332 W/m2
17:34 31.9 °C 15 °C 1020.0 hPa ESE 3.2 km/h 3.2 km/h 36% 0.0 mm 330 W/m2
17:39 31.8 °C 15.3 °C 1020.0 hPa NE 1.4 km/h 1.6 km/h 37% 0.0 mm 285 W/m2
17:44 31.7 °C 15.2 °C 1020.0 hPa SE 1.4 km/h 1.6 km/h 37% 0.0 mm 278 W/m2
17:49 31.7 °C 15.6 °C 1020.0 hPa Calm     38% 0.0 mm 315 W/m2
17:54 31.6 °C 15.1 °C 1020.0 hPa East 1.4 km/h 3.2 km/h 37% 0.0 mm 271 W/m2
17:59 31.3 °C 15.3 °C 1020.0 hPa East 1.4 km/h 1.6 km/h 38% 0.0 mm 190 W/m2
18:04 31.2 °C 15.6 °C 1020.0 hPa Calm   1.6 km/h 39% 0.0 mm 197 W/m2
18:09 31.1 °C 15.5 °C 1020.0 hPa Calm     39% 0.0 mm 134 W/m2
18:14 30.7 °C 15.9 °C 1020.0 hPa Calm   1.6 km/h 41% 0.0 mm 199 W/m2
18:19 30.4 °C 15.7 °C 1020.0 hPa Calm     41% 0.0 mm 128 W/m2
18:24 30.1 °C 15.8 °C 1020.0 hPa SW 1.4 km/h 1.6 km/h 42% 0.0 mm 83 W/m2
18:29 29.7 °C 15.4 °C 1020.0 hPa SW 3.2 km/h 3.2 km/h 42% 0.0 mm 83 W/m2
18:34 29.4 °C 15.9 °C 1020.0 hPa Calm   3.2 km/h 44% 0.0 mm 79 W/m2
18:39 29.1 °C 15.2 °C 1019.6 hPa Calm     43% 0.0 mm 100 W/m2
18:44 28.7 °C 15.2 °C 1019.6 hPa Calm   1.6 km/h 44% 0.0 mm 97 W/m2
18:49 28.5 °C 15.4 °C 1019.6 hPa Calm   1.6 km/h 45% 0.0 mm 109 W/m2
18:54 28.3 °C 15.2 °C 1019.6 hPa SW 1.4 km/h 1.6 km/h 45% 0.0 mm 83 W/m2
18:59 28.1 °C 15 °C 1019.6 hPa SW 1.4 km/h 3.2 km/h 45% 0.0 mm 37 W/m2
19:04 27.8 °C 14.8 °C 1019.6 hPa Calm   3.2 km/h 45% 0.0 mm 33 W/m2
19:09 27.4 °C 14.8 °C 1019.6 hPa SW 1.4 km/h 1.6 km/h 46% 0.0 mm 32 W/m2
19:14 27.1 °C 14.8 °C 1019.6 hPa SW 1.4 km/h 1.6 km/h 47% 0.0 mm 30 W/m2
19:19 26.8 °C 14.5 °C 1019.6 hPa SW 1.4 km/h 3.2 km/h 47% 0.0 mm 26 W/m2
19:24 26.4 °C 14.5 °C 1019.6 hPa Calm   1.6 km/h 48% 0.0 mm 25 W/m2
19:29 26.2 °C 14.6 °C 1019.6 hPa Calm   3.2 km/h 49% 0.0 mm 25 W/m2
19:34 25.8 °C 14.3 °C 1019.6 hPa Calm   1.6 km/h 49% 0.0 mm 23 W/m2
19:39 25.7 °C 14.2 °C 1019.6 hPa Calm     49% 0.0 mm 18 W/m2
19:44 25.4 °C 14.2 °C 1019.6 hPa Calm   1.6 km/h 50% 0.0 mm 12 W/m2
19:49 25.2 °C 14 °C 1019.6 hPa Calm     50% 0.0 mm 7 W/m2
19:54 25 °C 14.2 °C 1019.6 hPa Calm     51% 0.0 mm 5 W/m2
19:59 24.7 °C 14.2 °C 1019.6 hPa Calm     52% 0.0 mm 0 W/m2
20:04 24.4 °C 14.2 °C 1019.6 hPa Calm     53% 0.0 mm 0 W/m2
20:09 24.3 °C 14.1 °C 1019.6 hPa Calm     53% 0.0 mm 0 W/m2
20:14 24 °C 13.8 °C 1019.6 hPa Calm     53% 0.0 mm 0 W/m2
20:19 23.8 °C 13.9 °C 1019.6 hPa Calm     54% 0.0 mm 0 W/m2
20:24 23.6 °C 13.7 °C 1019.6 hPa Calm     54% 0.0 mm 0 W/m2
20:29 23.3 °C 13.8 °C 1019.6 hPa Calm     55% 0.0 mm 0 W/m2
20:34 23.2 °C 13.7 °C 1019.6 hPa Calm     55% 0.0 mm 0 W/m2
20:39 22.9 °C 13.7 °C 1020.0 hPa Calm     56% 0.0 mm 0 W/m2
20:44 22.8 °C 13.6 °C 1020.0 hPa Calm     56% 0.0 mm 0 W/m2
20:49 22.7 °C 13.7 °C 1020.0 hPa Calm     57% 0.0 mm 0 W/m2
20:54 22.6 °C 13.6 °C 1020.0 hPa Calm     57% 0.0 mm 0 W/m2
20:59 22.4 °C 13.5 °C 1020.0 hPa Calm     57% 0.0 mm 0 W/m2
21:04 22.3 °C 13.6 °C 1020.0 hPa Calm     58% 0.0 mm 0 W/m2
21:09 22.2 °C 13.5 °C 1020.0 hPa Calm     58% 0.0 mm 0 W/m2
21:14 21.9 °C 13.3 °C 1020.0 hPa Calm     58% 0.0 mm 0 W/m2
21:19 21.7 °C 13.3 °C 1020.0 hPa Calm     59% 0.0 mm 0 W/m2
21:24 21.6 °C 13.5 °C 1020.0 hPa Calm     60% 0.0 mm 0 W/m2
21:29 21.4 °C 13.6 °C 1020.3 hPa Calm     61% 0.0 mm 0 W/m2
21:34 21.3 °C 13.5 °C 1020.3 hPa Calm     61% 0.0 mm 0 W/m2
21:39 21.1 °C 13.5 °C 1020.3 hPa Calm     62% 0.0 mm 0 W/m2
21:44 21 °C 13.7 °C 1020.3 hPa Calm     63% 0.0 mm 0 W/m2
21:49 20.8 °C 13.5 °C 1020.3 hPa Calm     63% 0.0 mm 0 W/m2
21:54 20.7 °C 13.4 °C 1020.3 hPa Calm     63% 0.0 mm 0 W/m2
21:59 20.6 °C 13.6 °C 1020.3 hPa Calm     64% 0.0 mm 0 W/m2
22:04 20.3 °C 13.3 °C 1020.3 hPa Calm     64% 0.0 mm 0 W/m2
22:09 20.3 °C 13.3 °C 1020.3 hPa Calm     64% 0.0 mm 0 W/m2
22:14 20.1 °C 13.1 °C 1020.3 hPa Calm     64% 0.0 mm 0 W/m2
22:19 20 °C 13 °C 1020.3 hPa Calm     64% 0.0 mm 0 W/m2
22:24 19.9 °C 13.1 °C 1020.3 hPa Calm     65% 0.0 mm 0 W/m2
22:29 19.8 °C 13 °C 1020.3 hPa Calm     65% 0.0 mm 0 W/m2
22:34 19.7 °C 12.9 °C 1020.3 hPa Calm     65% 0.0 mm 0 W/m2
22:39 19.6 °C 12.8 °C 1020.3 hPa Calm     65% 0.0 mm 0 W/m2
22:44 19.6 °C 12.8 °C 1020.3 hPa Calm     65% 0.0 mm 0 W/m2
22:49 19.4 °C 12.9 °C 1020.3 hPa Calm     66% 0.0 mm 0 W/m2
22:54 19.3 °C 13 °C 1020.3 hPa Calm     67% 0.0 mm 0 W/m2
22:59 19.2 °C 12.9 °C 1020.3 hPa Calm     67% 0.0 mm 0 W/m2
23:04 19.1 °C 13.1 °C 1020.3 hPa Calm     68% 0.0 mm 0 W/m2
23:09 18.9 °C 12.9 °C 1020.3 hPa Calm     68% 0.0 mm 0 W/m2
23:14 18.8 °C 13 °C 1020.3 hPa Calm     69% 0.0 mm 0 W/m2
Juneau County Weather
Compliments of Weather Underground - 4 mb